User: anonymous   Login
Location: Parc des �les de St-Timoth�e
(45.2924°N, 74.0481°W)
Time: 14:48:24
(UTC-05:00)
Language:

Cosmos 2173 Rocket - Orbit

View from above orbital plane
View from above orbital plane
View from above satellite
View from above satellite

Ground track
Ground track

The orbit data is extracted from the following two-line orbital elements,

1 21797U 91081B   17020.92202142 -.00000040 +00000-0 -55492-4 0  9992
2 21797 082.9545 171.5523 0038879 139.9522 033.3388 13.77387625263852
Epoch (UTC): 20 January 2017 22:07:42
Eccentricity: 0.0038879
inclination: 82.9545°
perigee height: 944 km
apogee height: 1002 km
right ascension of ascending node: 171.5523°
argument of perigee: 139.9522°
revolutions per day: 13.77387625
mean anomaly at epoch: 33.3388°
orbit number at epoch: 26385

The dashed part of the orbit path shows where the satellite is in the earth's shadow,  

DLR